Williamsport, PA

11:17 PM EDT on July 25, 2017 (GMT -0400)
Williamsport Rgnl

Weather History for KIPT - July, 2012

Change the Weather History Date:

Thursday, July 5, 2012

  Actual Average Record
Temperature  
Mean Temperature 82 °F 72 °F  
Max Temperature 94 °F 83 °F 100 °F (1955)
Min Temperature 69 °F 62 °F 46 °F (1927)
Degree Days  
Heating Degree Days 0 0  
Month to date heating degree days 0 0  
Since 1 June heating degree days 24 37  
Since 1 July heating degree days 0 0  
Cooling Degree Days 17 8  
Month to date cooling degree days 66 37  
Year to date cooling degree days 326 226  
Since 1 June cooling degree days 218 183  
Growing Degree Days 32 (Base 50)    
Moisture  
Dew Point 65 °F    
Average Humidity 63    
Maximum Humidity 93    
Minimum Humidity 32    
Precipitation  
Precipitation 0.00 in 0.12 in 2.30 in (2005)
Month to date precipitation 0.04 0.64  
Year to date precipitation 16.10 19.47  
Sea Level Pressure  
Sea Level Pressure 29.83 in    
Wind  
Wind Speed 5 mph (NW)    
Max Wind Speed 14 mph    
Max Gust Speed 21 mph    
Visibility 9 miles    
Events      
T = Trace of Precipitation, MM = Missing Value Source: NWS Daily Summary

Daily Weather History Graph

Daily Weather History Graph

Search for Another Location

Airport or City:

Trip Planner

Search our weather history database for the weather conditions in past years. The results will help you decide how hot, cold, wet, or windy it might be!

Date:

Astronomy

Jul. 05, 2012 Rise Set
Actual Time 5:40 AM EDT 8:43 PM EDT
Civil Twilight 5:07 AM EDT 9:16 PM EDT
Nautical Twilight 4:24 AM EDT 9:59 PM EDT
Astronomical Twilight 3:34 AM EDT 10:49 PM EDT
Moon 9:56 PM EDT (7/5) 7:52 AM EDT (7/5)
Length of Visible Light 16h 09m
Length of Day
15h 02m
Waning Gibbous, 95% of the Moon is Illuminated
Jul 5
Waning Gibbous
Jul 10
Last Quarter
Jul 19
New
Jul 26
First Quarter
Aug 1
Full

Hourly Weather History & Observations

Time (EDT) Temp. Heat Index Dew Point Humidity Pressure Visibility Wind Dir Wind Speed Gust Speed Precip Events Conditions
12:54 AM 75.9 °F - 72.0 °F 87% 29.79 in 9.0 mi Calm Calm - N/A   Partly Cloudy
1:54 AM 75.0 °F - 72.0 °F 90% 29.80 in 6.0 mi Calm Calm - N/A   Clear
2:54 AM 73.9 °F - 71.1 °F 91% 29.80 in 6.0 mi Calm Calm - N/A   Clear
3:54 AM 73.0 °F - 70.0 °F 90% 29.80 in 6.0 mi Calm Calm - N/A   Clear
4:54 AM 73.0 °F - 70.0 °F 90% 29.80 in 5.0 mi NW 3.5 mph - N/A   Clear
5:54 AM 73.9 °F - 70.0 °F 87% 29.82 in 6.0 mi WNW 9.2 mph - N/A   Clear
6:54 AM 75.0 °F - 70.0 °F 84% 29.82 in 6.0 mi West 9.2 mph - N/A   Haze
7:54 AM 77.0 °F - 71.1 °F 82% 29.83 in 8.0 mi West 6.9 mph - N/A   Clear
8:54 AM 81.0 °F 84.9 °F 71.1 °F 72% 29.84 in 10.0 mi Variable 4.6 mph - N/A   Partly Cloudy
9:54 AM 84.9 °F 87.6 °F 66.9 °F 55% 29.84 in 10.0 mi Variable 5.8 mph - N/A   Clear
10:54 AM 88.0 °F 90.3 °F 66.0 °F 48% 29.84 in 10.0 mi NW 9.2 mph - N/A   Clear
11:54 AM 89.1 °F 90.3 °F 64.0 °F 43% 29.85 in 10.0 mi NW 9.2 mph - N/A   Scattered Clouds
12:54 PM 91.0 °F 91.5 °F 62.1 °F 38% 29.84 in 10.0 mi NNW 9.2 mph 17.3 mph N/A   Clear
1:54 PM 91.9 °F 92.5 °F 62.1 °F 37% 29.83 in 10.0 mi North 9.2 mph - N/A   Clear
2:54 PM 93.2 °F 93.3 °F 60.8 °F 34% 29.83 in 10.0 mi NNE 6.9 mph 18.4 mph N/A   Partly Cloudy
3:54 PM 93.0 °F 93.0 °F 61.0 °F 34% 29.83 in 10.0 mi NNW 11.5 mph - N/A   Partly Cloudy
4:54 PM 93.0 °F 92.3 °F 59.0 °F 32% 29.81 in 10.0 mi NNW 8.1 mph - N/A   Clear
5:54 PM 90.0 °F 88.6 °F 57.0 °F 33% 29.81 in 10.0 mi NNW 9.2 mph - N/A   Clear
6:54 PM 91.0 °F 89.7 °F 57.0 °F 32% 29.81 in 10.0 mi NW 5.8 mph - N/A   Clear
7:54 PM 88.0 °F 86.7 °F 57.0 °F 35% 29.82 in 10.0 mi NW 4.6 mph - N/A   Clear
8:54 PM 80.1 °F 81.2 °F 62.1 °F 54% 29.83 in 10.0 mi Calm Calm - N/A   Clear
9:54 PM 75.0 °F - 63.0 °F 66% 29.87 in 10.0 mi West 3.5 mph - N/A   Clear
10:54 PM 73.9 °F - 64.0 °F 71% 29.88 in 10.0 mi Calm Calm - N/A   Clear
11:54 PM 71.1 °F - 64.0 °F 78% 29.90 in 10.0 mi Calm Calm - N/A   Clear